Location: Newark
(45.5000°N, 11.4167°E)
Time: 01:43:17
(UTC+00:00)

Transit 2A Rocket - Pass Details

Date: 29 August 2019
Orbit: 592 x 911 km, 66.7° (Epoch: 19 September)

Event Time Altitude Azimuth Distance (km) Brightness Sun altitude
Rises 18:05:04 0° 244° (WSW) 3,398 9.2 -2.0°
Reaches altitude 10° 18:07:56 10° 256° (WSW) 2,417 8.7 -2.4°
Maximum altitude 18:12:43 29° 315° (NW) 1,407 7.3 -3.3°
Drops below altitude 10° 18:17:10 10° 15° (NNE) 2,241 7.5 -4.0°
Sets 18:19:44 0° 27° (NNE) 3,109 8.1 -4.4°
